User: anonymous   Login
Location: Unspecified
(0.0000°N, 0.0000°E)
Time: 14:44:06
(UTC+00:00)
Language:

OAO 2 - Orbit

View from above orbital plane
View from above orbital plane
View from above satellite
View from above satellite

Ground track
Ground track

The orbit data is extracted from the following two-line orbital elements,

1  3597U 68110A   17206.21900222 -.00000007 +00000-0 +33137-5 0  9994
2  3597 034.9925 177.1326 0005843 191.2338 168.8222 14.45776864563412
Epoch (UTC): 25 July 2017 05:15:21
Eccentricity: 0.0005843
inclination: 34.9925°
perigee height: 735 km
apogee height: 743 km
right ascension of ascending node: 177.1326°
argument of perigee: 191.2338°
revolutions per day: 14.45776864
mean anomaly at epoch: 168.8222°
orbit number at epoch: 56341

The dashed part of the orbit path shows where the satellite is in the earth's shadow,  

DLR